#timestamp,LO_Frequency,Hit,StdDev 
1666645215.1,286047002.7,N
1666645216.0,286047002.7,N
1666645235.8,286047002.3,N
1666645255.6,286047001.8,N
1666645275.5,286047002.1,N
1666645295.3,286047001.6,N
1666645315.1,286047004.1,N
1666645335.9,286047004.3,N
1666645355.7,286047001.7,N
1666645375.6,286047002.1,N
1666645395.4,286047004.3,N
1666645415.2,286047004.4,N
1666645435.1,286047003.5,N
1666645436.0,286047003.5,N
1666645455.8,286047003.4,N
1666645475.7,286047004.2,N
1666645495.5,286047004.1,N
1666645515.3,286047001.7,N
1666645535.2,286046999.7,N
1666645555.0,286047002.6,N
1666645555.9,286047002.6,N
1666645575.7,286047000.1,N
1666645595.6,286046999.8,N
1666645615.4,286047002.7,N
1666645635.3,286046999.9,N
1666645655.1,286046999.9,N
1666645656.0,286046999.9,N
1666645675.8,286047002.5,N
1666645695.7,286047001.7,N
1666645715.5,286047002.3,N
1666645735.3,286047002.3,N
1666645755.2,286047002.3,N
1666645775.0,286047002.3,N
1666645775.9,286047002.3,N
1666645795.8,286046999.7,N
1666645815.6,286047000.2,N
1666645835.5,286047000.4,N
1666645855.3,286046999.9,N
1666645875.1,286047000.6,N
1666645895.9,286047000.2,N
1666645915.7,286047000.6,N
1666645935.5,286047001.1,N
1666645955.4,286046998.7,N
1666645975.2,286046998.4,N
1666645995.1,286046998.5,N
1666645996.0,286046998.5,N
1666646015.8,286046998.4,N
1666646035.6,286046998.4,N
1666646055.5,286046998.8,N
1666646075.3,286046999.5,N
1666646095.1,286046999.3,N
1666646115.9,286046999.2,N
1666646135.7,286046999.0,N
1666646155.6,286046999.5,N
1666646175.4,286046999.1,N
1666646195.2,286046997.5,N
1666646215.1,286046997.3,N
1666646216.0,286046997.3,N
1666646235.8,286046997.8,N
1666646255.7,286046997.5,N
1666646275.5,286046997.2,N
1666646295.3,286046996.7,N
1666646315.2,286046997.2,N
1666646335.0,286046995.0,Y
1666646335.9,286046995.0,P
1666646355.8,286046996.7,N
1666646375.6,286046997.2,N
1666646395.4,286046999.6,N
1666646415.3,286046996.6,N
1666646435.1,286046997.9,N
1666646455.9,286046996.1,N
1666646475.7,286046993.4,Y
1666646495.5,286046997.2,P
1666646515.4,286046997.8,P
1666646535.2,286046995.0,P
1666646555.0,286046995.5,Y
1666646556.0,286046995.5,P
1666646575.8,286046998.7,N
1666646595.6,286046998.1,N
1666646615.5,286047001.2,N
1666646635.3,286046996.5,N
1666646655.1,286046998.5,N
1666646675.9,286046998.4,N
1666646695.7,286047000.4,N
1666646715.6,286047000.5,N
1666646735.4,286047000.3,N
1666646755.2,286047000.3,N
1666646775.1,286047000.9,N
1666646776.0,286047000.9,N
1666646795.8,286047000.4,N
1666646815.6,286047000.9,N
1666646835.5,286046998.1,N
1666646855.3,286047001.2,N
1666646875.2,286047000.8,N
1666646895.9,286047000.7,N
1666646915.7,286047000.6,N
1666646935.6,286047000.1,N
1666646955.4,286047000.9,N
1666646975.3,286047000.7,N
1666646995.1,286047001.2,N
1666647015.8,286046998.5,N
1666647035.7,286046998.1,N
1666647055.5,286046998.4,N
1666647075.4,286046998.3,N
1666647095.2,286047000.9,N
1666647115.0,286047000.7,N
1666647115.9,286047000.7,N
1666647135.8,286047001.0,N
1666647155.6,286047000.8,N
1666647175.4,286047000.4,N
1666647195.3,286047000.7,N
1666647215.1,286047001.1,N
1666647235.9,286046999.3,N
1666647255.7,286046999.4,N
1666647275.5,286046999.4,N
1666647295.4,286046996.5,Y
1666647315.2,286046996.9,P
1666647335.0,286046997.5,N
1666647335.9,286046997.5,N
1666647355.8,286046997.3,N
1666647375.6,286046997.5,N
1666647395.5,286046997.8,N
1666647415.3,286046997.1,N
1666647435.1,286046996.7,Y
1666647455.9,286046999.9,P
1666647475.7,286046998.1,N
1666647495.6,286047000.7,N
1666647515.4,286046998.2,N
1666647535.2,286047001.0,N
1666647555.1,286046999.3,N
1666647556.0,286046999.3,N
1666647575.8,286046997.0,N
1666647595.6,286046999.3,N
1666647615.5,286046997.1,N
1666647635.3,286046997.7,N
1666647655.2,286046999.5,N
1666647675.9,286046994.9,Y
1666647695.7,286046998.3,P
1666647715.6,286046998.4,P
1666647735.4,286046998.1,P
1666647755.3,286046998.9,Y
1666647775.1,286047000.3,P
1666647776.0,286047000.3,N
1666647795.8,286047000.1,N
1666647815.7,286046999.7,N
1666647835.5,286047002.8,Y
1666647855.3,286047002.6,P
1666647875.2,286047002.5,N
1666647895.0,286046999.8,N
1666647895.9,286046999.8,N
1666647915.8,286047002.2,N
1666647935.6,286047000.1,N
1666647955.4,286046999.8,N
1666647975.3,286047002.4,N
1666647995.1,286046999.9,N
1666648015.9,286047000.6,N
1666648035.7,286047000.5,N
1666648055.5,286046998.1,N
1666648075.4,286047000.6,N
1666648095.2,286047000.5,N
1666648115.0,286047000.3,N
1666648115.9,286047000.3,N
1666648135.8,286047000.5,N
1666648155.6,286047000.3,N
1666648175.5,286047000.3,N
1666648195.3,286047000.9,N
1666648215.1,286047000.6,N
1666648235.9,286047000.0,N
1666648255.7,286047000.2,N
1666648275.5,286047000.1,N
1666648295.4,286047000.9,N
1666648315.2,286047001.0,N
1666648335.1,286047001.0,N
1666648336.0,286047001.0,N
1666648355.8,286046999.9,N
1666648375.6,286047000.2,N
1666648395.5,286047000.5,N
1666648415.3,286047000.7,N
1666648435.1,286046998.3,N
1666648455.9,286046998.6,N
1666648475.7,286047001.1,N
1666648495.6,286047000.4,N
1666648515.4,286046998.2,N
1666648535.2,286046998.2,N
1666648555.1,286047000.8,N
1666648556.0,286047000.8,N
1666648575.8,286046998.1,N
1666648595.6,286046998.3,N
1666648615.5,286047000.5,N
1666648635.3,286047000.5,N
1666648655.2,286047000.6,N
1666648675.9,286047000.4,N
1666648695.7,286047000.0,N
1666648715.6,286047000.2,N
1666648735.4,286047000.0,N
1666648755.2,286047000.9,N
1666648775.1,286047001.0,N
1666648776.0,286047001.0,N
1666648795.8,286047001.0,N
